| time (UTC) | temp C | wind direction | speed KPH | gust KPH | rain 1hr cm | rain 24hr cm | rain mn cm | humidity % | barometer mb |
| 20260510175522 | 22 | 254 | 4.8 | 14.5 | 0.00 | 0.74 | 0.00 | 60 | 1012.2 |
| 20260510174522 | 22 | 233 | 1.6 | 4.8 | 0.00 | 0.74 | 0.00 | 63 | 1012.1 |
| 20260510173522 | 22 | 213 | 1.6 | 3.2 | 0.00 | 0.74 | 0.00 | 64 | 1012.1 |
| 20260510172518 | 22 | 195 | 0.0 | 3.2 | 0.00 | 0.74 | 0.00 | 65 | 1012.1 |
| 20260510171539 | 21 | 240 | 1.6 | 4.8 | 0.00 | 0.74 | 0.00 | 68 | 1012.2 |
| 20260510170518 | 21 | 127 | 0.0 | 3.2 | 0.00 | 0.74 | 0.00 | 68 | 1012.4 |
| 20260510165542 | 21 | 253 | 1.6 | 6.4 | 0.00 | 0.74 | 0.00 | 71 | 1012.5 |
| 20260510164519 | 20 | 231 | 1.6 | 8.0 | 0.00 | 0.74 | 0.00 | 71 | 1012.5 |
| 20260510163519 | 20 | 134 | 1.6 | 6.4 | 0.00 | 0.74 | 0.00 | 72 | 1012.5 |
| 20260510162521 | 19 | 162 | 0.0 | 4.8 | 0.00 | 0.74 | 0.00 | 75 | 1012.7 |
| 20260510161519 | 18 | 245 | 1.6 | 6.4 | 0.00 | 0.74 | 0.00 | 77 | 1012.7 |
| 20260510160520 | 18 | 208 | 0.0 | 4.8 | 0.00 | 0.74 | 0.00 | 78 | 1012.7 |
| 20260510155520 | 18 | 20 | 0.0 | 3.2 | 0.00 | 0.74 | 0.00 | 78 | 1012.7 |
| 20260510154540 | 18 | 207 | 1.6 | 4.8 | 0.00 | 0.74 | 0.00 | 79 | 1012.8 |
| 20260510153521 | 17 | 231 | 1.6 | 8.0 | 0.00 | 0.74 | 0.00 | 82 | 1012.9 |
| 20260510152519 | 16 | 281 | 1.6 | 6.4 | 0.00 | 0.74 | 0.00 | 85 | 1012.9 |
| 20260510151520 | 15 | 112 | 1.6 | 6.4 | 0.00 | 0.74 | 0.00 | 86 | 1012.9 |
| 20260510150600 | 15 | 169 | 0.0 | 4.8 | 0.00 | 0.74 | 0.00 | 87 | 1013.1 |
| 20260510145522 | 15 | 256 | 0.0 | 3.2 | 0.00 | 0.74 | 0.00 | 87 | 1013.2 |
| 20260510144518 | 15 | 201 | 1.6 | 6.4 | 0.00 | 0.74 | 0.00 | 86 | 1013.1 |
| 20260510143521 | 15 | 272 | 1.6 | 3.2 | 0.00 | 0.74 | 0.00 | 87 | 1013.1 |
| 20260510142602 | 14 | 226 | 0.0 | 3.2 | 0.00 | 0.74 | 0.00 | 90 | 1013.1 |
| 20260510141521 | 13 | 263 | 0.0 | 3.2 | 0.00 | 0.74 | 0.00 | 93 | 1013.0 |
| 20260510140521 | 13 | 284 | 1.6 | 3.2 | 0.00 | 0.74 | 0.00 | 93 | 1012.9 |
| 20260510135518 | 13 | 327 | 0.0 | 1.6 | 0.00 | 0.74 | 0.00 | 94 | 1012.9 |
| 20260510134518 | 13 | 62 | 0.0 | 1.6 | 0.00 | 0.74 | 0.00 | 95 | 1012.9 |
| 20260510133518 | 13 | 233 | 0.0 | 3.2 | 0.00 | 0.74 | 0.00 | 97 | 1012.9 |
| 20260510132541 | 12 | 264 | 0.0 | 1.6 | 0.00 | 0.74 | 0.00 | 99 | 1012.8 |
| 20260510131522 | 12 | 271 | 1.6 | 3.2 | 0.00 | 0.74 | 0.00 | 99 | 1012.7 |
| 20260510130519 | 12 | 262 | 0.0 | 3.2 | 0.00 | 0.74 | 0.00 | 100 | 1012.6 |
| 20260510125519 | 12 | 255 | 0.0 | 1.6 | 0.00 | 0.74 | 0.00 | 100 | 1012.4 |
| 20260510124519 | 11 | 0.0 | 0.0 | 0.00 | 0.74 | 0.00 | 100 | 1012.4 | |
| 20260510123519 | 11 | 247 | 0.0 | 1.6 | 0.00 | 0.74 | 0.00 | 100 | 1012.4 |
| 20260510122519 | 11 | 0.0 | 0.0 | 0.00 | 0.76 | 0.00 | 99 | 1012.2 | |
| 20260510121540 | 11 | 238 | 0.0 | 1.6 | 0.00 | 0.76 | 0.00 | 99 | 1012.2 |
| 20260510120520 | 11 | 166 | 0.0 | 1.6 | 0.00 | 0.76 | 0.00 | 99 | 1012.1 |
| 20260510115540 | 11 | 322 | 0.0 | 1.6 | 0.00 | 0.76 | 0.00 | 99 | 1011.9 |
| 20260510114520 | 11 | 281 | 0.0 | 3.2 | 0.00 | 0.76 | 0.00 | 99 | 1011.9 |
| 20260510113520 | 11 | 242 | 0.0 | 1.6 | 0.00 | 0.76 | 0.00 | 99 | 1012.0 |
| 20260510112520 | 11 | 235 | 0.0 | 1.6 | 0.00 | 0.76 | 0.00 | 99 | 1011.8 |
| 20260510111521 | 11 | 320 | 0.0 | 1.6 | 0.00 | 0.76 | 0.00 | 99 | 1011.6 |
| 20260510110522 | 11 | 185 | 0.0 | 1.6 | 0.00 | 0.76 | 0.00 | 99 | 1011.5 |
| 20260510105522 | 11 | 331 | 0.0 | 1.6 | 0.00 | 0.76 | 0.00 | 99 | 1011.4 |
| 20260510104521 | 11 | 337 | 0.0 | 1.6 | 0.00 | 0.76 | 0.00 | 99 | 1011.2 |
| 20260510103522 | 11 | 324 | 0.0 | 1.6 | 0.00 | 0.76 | 0.00 | 99 | 1011.3 |
| 20260510102518 | 11 | 216 | 0.0 | 1.6 | 0.00 | 0.76 | 0.00 | 99 | 1011.3 |
| 20260510101518 | 10 | 316 | 0.0 | 1.6 | 0.00 | 0.76 | 0.00 | 99 | 1011.3 |
| 20260510100538 | 10 | 227 | 0.0 | 1.6 | 0.00 | 0.76 | 0.00 | 99 | 1011.4 |
| 20260510095541 | 10 | 0.0 | 0.0 | 0.00 | 0.76 | 0.00 | 99 | 1011.4 | |
| 20260510094521 | 10 | 211 | 0.0 | 0.0 | 0.00 | 0.76 | 0.00 | 99 | 1011.3 |
| 20260510093518 | 10 | 246 | 0.0 | 3.2 | 0.00 | 0.76 | 0.00 | 99 | 1011.2 |
| 20260510092521 | 10 | 21 | 0.0 | 1.6 | 0.00 | 0.76 | 0.00 | 99 | 1011.4 |
| 20260510091519 | 10 | 218 | 0.0 | 1.6 | 0.00 | 0.76 | 0.00 | 99 | 1011.5 |
| 20260510090518 | 10 | 0.0 | 0.0 | 0.00 | 0.76 | 0.00 | 99 | 1011.6 | |
| 20260510085540 | 10 | 236 | 0.0 | 0.0 | 0.00 | 0.76 | 0.00 | 99 | 1011.7 |
| 20260510084523 | 10 | 0.0 | 0.0 | 0.00 | 0.76 | 0.00 | 99 | 1011.7 | |
| 20260510083520 | 10 | 0.0 | 0.0 | 0.00 | 0.76 | 0.00 | 99 | 1011.7 | |
| 20260510082519 | 11 | 359 | 0.0 | 1.6 | 0.00 | 0.76 | 0.00 | 99 | 1011.7 |
| 20260510081519 | 11 | 5 | 0.0 | 3.2 | 0.00 | 0.76 | 0.00 | 99 | 1011.6 |
| 20260510080524 | 11 | 332 | 0.0 | 3.2 | 0.00 | 0.76 | 0.00 | 99 | 1011.5 |
| 20260510075520 | 11 | 222 | 0.0 | 3.2 | 0.00 | 0.76 | 0.00 | 99 | 1011.4 |
| 20260510074517 | 11 | 344 | 0.0 | 3.2 | 0.00 | 0.76 | 0.00 | 99 | 1010.8 |
| 20260510073541 | 11 | 0.0 | 0.0 | 0.00 | 0.76 | 0.00 | 99 | 1010.8 | |
| 20260510072520 | 11 | 0.0 | 0.0 | 0.00 | 0.76 | 0.00 | 99 | 1010.8 | |
| 20260510071522 | 11 | 62 | 0.0 | 0.0 | 0.00 | 0.76 | 0.00 | 99 | 1010.8 |
| 20260510070520 | 11 | 348 | 0.0 | 1.6 | 0.00 | 0.76 | 0.00 | 100 | 1011.0 |
| 20260510065518 | 11 | 0.0 | 0.0 | 0.00 | 0.76 | 0.00 | 100 | 1010.9 | |
| 20260510064518 | 11 | 0.0 | 0.0 | 0.00 | 0.76 | 0.00 | 100 | 1010.9 | |
| 20260510063521 | 11 | 349 | 0.0 | 1.6 | 0.00 | 0.76 | 0.00 | 100 | 1011.1 |
| 20260510062522 | 10 | 3 | 0.0 | 1.6 | 0.00 | 0.76 | 0.00 | 100 | 1011.1 |
| 20260510061518 | 10 | 15 | 0.0 | 1.6 | 0.00 | 0.76 | 0.00 | 100 | 1011.0 |
| 20260510060519 | 10 | 0.0 | 0.0 | 0.00 | 0.76 | 0.00 | 100 | 1010.9 | |
| 20260510055522 | 10 | 0.0 | 0.0 | 0.00 | 0.79 | 0.00 | 100 | 1010.8 | |
| 20260510054522 | 10 | 3 | 0.0 | 1.6 | 0.00 | 0.79 | 0.00 | 100 | 1010.7 |
| 20260510053520 | 10 | 29 | 0.0 | 1.6 | 0.00 | 0.79 | 0.00 | 100 | 1010.7 |
| 20260510052519 | 10 | 0.0 | 0.0 | 0.00 | 0.79 | 0.00 | 99 | 1010.8 | |
| 20260510051520 | 10 | 7 | 0.0 | 0.0 | 0.00 | 0.79 | 0.00 | 99 | 1010.9 |
| 20260510050520 | 10 | 42 | 0.0 | 1.6 | 0.00 | 0.79 | 0.00 | 99 | 1010.9 |
| 20260510045521 | 11 | 0.0 | 0.0 | 0.00 | 0.79 | 0.00 | 99 | 1011.0 | |
| 20260510044520 | 11 | 340 | 0.0 | 1.6 | 0.00 | 0.79 | 0.00 | 99 | 1011.0 |
| 20260510043520 | 11 | 0.0 | 0.0 | 0.00 | 0.79 | 0.00 | 99 | 1011.0 | |
| 20260510042520 | 11 | 0.0 | 0.0 | 0.00 | 0.79 | 0.00 | 99 | 1011.0 | |
| 20260510041520 | 11 | 340 | 0.0 | 1.6 | 0.00 | 0.79 | 0.00 | 99 | 1010.9 |
| 20260510040520 | 11 | 0.0 | 0.0 | 0.00 | 0.79 | 0.00 | 99 | 1011.0 | |
| 20260510035518 | 11 | 29 | 0.0 | 1.6 | 0.00 | 0.79 | 0.79 | 99 | 1011.0 |
| 20260510034539 | 10 | 318 | 1.6 | 3.2 | 0.00 | 0.79 | 0.79 | 99 | 1010.9 |
| 20260510033520 | 10 | 28 | 0.0 | 1.6 | 0.00 | 0.79 | 0.79 | 99 | 1010.8 |
| 20260510032520 | 10 | 253 | 0.0 | 1.6 | 0.00 | 0.79 | 0.79 | 99 | 1010.6 |
| 20260510031521 | 10 | 250 | 0.0 | 0.0 | 0.00 | 0.79 | 0.79 | 99 | 1010.6 |
| 20260510030523 | 10 | 43 | 0.0 | 1.6 | 0.00 | 0.79 | 0.79 | 99 | 1010.6 |
| 20260510025521 | 10 | 339 | 0.0 | 1.6 | 0.00 | 0.79 | 0.79 | 99 | 1010.7 |
| 20260510024540 | 10 | 19 | 0.0 | 0.0 | 0.00 | 0.79 | 0.79 | 99 | 1010.8 |
| 20260510023519 | 10 | 0.0 | 0.0 | 0.00 | 0.79 | 0.79 | 99 | 1010.9 | |
| 20260510022541 | 10 | 53 | 0.0 | 1.6 | 0.00 | 0.79 | 0.79 | 99 | 1010.8 |
| 20260510021521 | 10 | 0.0 | 0.0 | 0.00 | 0.79 | 0.79 | 98 | 1010.8 | |
| 20260510020519 | 10 | 54 | 0.0 | 1.6 | 0.00 | 0.79 | 0.79 | 98 | 1010.7 |
| 20260510015520 | 10 | 0.0 | 0.0 | 0.00 | 0.79 | 0.79 | 98 | 1010.8 | |
| 20260510014519 | 10 | 63 | 0.0 | 0.0 | 0.00 | 0.79 | 0.79 | 98 | 1010.7 |
| 20260510013539 | 10 | 0.0 | 0.0 | 0.00 | 0.79 | 0.79 | 98 | 1010.8 | |
| 20260510012522 | 11 | 48 | 0.0 | 1.6 | 0.00 | 0.79 | 0.79 | 98 | 1010.7 |
| 20260510011540 | 11 | 342 | 0.0 | 1.6 | 0.00 | 0.79 | 0.79 | 98 | 1010.5 |
| 20260510010539 | 11 | 357 | 0.0 | 1.6 | 0.00 | 0.79 | 0.79 | 98 | 1010.2 |
| 20260510005519 | 11 | 0.0 | 0.0 | 0.00 | 0.79 | 0.79 | 98 | 1010.2 | |
| 20260510004521 | 11 | 64 | 0.0 | 1.6 | 0.00 | 0.79 | 0.79 | 97 | 1010.1 |
| 20260510003541 | 11 | 25 | 0.0 | 3.2 | 0.00 | 0.79 | 0.79 | 97 | 1010.2 |
| 20260510002603 | 11 | 46 | 0.0 | 1.6 | 0.00 | 0.79 | 0.79 | 97 | 1010.2 |
| 20260510001540 | 11 | 47 | 0.0 | 0.0 | 0.00 | 0.79 | 0.79 | 97 | 1010.2 |
| 20260510000520 | 12 | 0.0 | 0.0 | 0.00 | 0.79 | 0.79 | 96 | 1010.1 | |
| 20260509235520 | 12 | 0.0 | 0.0 | 0.00 | 0.79 | 0.79 | 96 | 1010.0 | |
| 20260509234521 | 12 | 309 | 0.0 | 1.6 | 0.00 | 0.79 | 0.79 | 96 | 1010.0 |
| 20260509233520 | 12 | 0.0 | 0.0 | 0.00 | 0.79 | 0.79 | 96 | 1009.9 | |
| 20260509232518 | 12 | 78 | 0.0 | 3.2 | 0.00 | 0.79 | 0.79 | 96 | 1009.9 |
| 20260509231518 | 12 | 162 | 0.0 | 3.2 | 0.00 | 0.79 | 0.79 | 96 | 1009.8 |
| 20260509230521 | 13 | 211 | 0.0 | 3.2 | 0.00 | 0.79 | 0.79 | 96 | 1009.8 |
| 20260509225522 | 13 | 18 | 0.0 | 1.6 | 0.00 | 0.79 | 0.79 | 96 | 1010.2 |
| 20260509224518 | 12 | 233 | 0.0 | 3.2 | 0.00 | 0.79 | 0.79 | 96 | 1010.3 |
| 20260509223519 | 12 | 245 | 1.6 | 3.2 | 0.05 | 0.79 | 0.79 | 97 | 1010.1 |
| 20260509222519 | 12 | 195 | 0.0 | 3.2 | 0.23 | 0.79 | 0.79 | 97 | 1010.1 |
| 20260509221519 | 12 | 152 | 0.0 | 1.6 | 0.25 | 0.79 | 0.79 | 97 | 1010.1 |
| 20260509220522 | 12 | 233 | 0.0 | 3.2 | 0.30 | 0.79 | 0.79 | 97 | 1010.3 |
| 20260509215540 | 12 | 295 | 0.0 | 1.6 | 0.43 | 0.79 | 0.79 | 97 | 1010.5 |
| 20260509214519 | 12 | 193 | 0.0 | 1.6 | 0.48 | 0.79 | 0.79 | 96 | 1010.4 |
| 20260509213520 | 12 | 29 | 0.0 | 0.0 | 0.46 | 0.74 | 0.74 | 96 | 1010.6 |
| 20260509212520 | 12 | 273 | 0.0 | 1.6 | 0.30 | 0.58 | 0.58 | 96 | 1010.5 |
| 20260509211520 | 12 | 232 | 0.0 | 3.2 | 0.28 | 0.53 | 0.53 | 95 | 1010.6 |
| 20260509210519 | 12 | 104 | 0.0 | 3.2 | 0.25 | 0.48 | 0.48 | 95 | 1010.3 |
| 20260509205521 | 12 | 26 | 0.0 | 1.6 | 0.15 | 0.36 | 0.36 | 94 | 1010.5 |
| 20260509204519 | 12 | 159 | 0.0 | 3.2 | 0.10 | 0.30 | 0.30 | 94 | 1010.7 |
| 20260509203520 | 12 | 85 | 0.0 | 1.6 | 0.10 | 0.30 | 0.30 | 93 | 1010.7 |
| 20260509202520 | 12 | 58 | 0.0 | 1.6 | 0.08 | 0.28 | 0.28 | 92 | 1010.6 |
| 20260509201521 | 13 | 280 | 0.0 | 4.8 | 0.05 | 0.25 | 0.25 | 90 | 1010.9 |
| 20260509200521 | 13 | 258 | 1.6 | 4.8 | 0.03 | 0.23 | 0.23 | 89 | 1010.8 |
| 20260509195542 | 13 | 253 | 4.8 | 11.3 | 0.00 | 0.23 | 0.20 | 87 | 1010.9 |
| 20260509194522 | 13 | 258 | 3.2 | 4.8 | 0.00 | 0.20 | 0.20 | 87 | 1010.8 |
| 20260509193522 | 13 | 279 | 1.6 | 8.0 | 0.03 | 0.20 | 0.20 | 89 | 1010.7 |
| 20260509192541 | 13 | 344 | 0.0 | 1.6 | 0.05 | 0.20 | 0.20 | 89 | 1010.7 |
| 20260509191542 | 13 | 86 | 0.0 | 1.6 | 0.05 | 0.20 | 0.20 | 89 | 1010.7 |
| 20260509190519 | 13 | 235 | 0.0 | 3.2 | 0.10 | 0.20 | 0.20 | 89 | 1010.7 |
| 20260509185519 | 13 | 268 | 1.6 | 4.8 | 0.13 | 0.20 | 0.20 | 89 | 1010.7 |
| 20260509184541 | 13 | 252 | 1.6 | 4.8 | 0.15 | 0.20 | 0.20 | 88 | 1010.8 |
| 20260509183522 | 13 | 268 | 1.6 | 3.2 | 0.13 | 0.18 | 0.18 | 87 | 1011.2 |
| 20260509182540 | 14 | 279 | 1.6 | 6.4 | 0.10 | 0.15 | 0.15 | 83 | 1011.2 |
| 20260509181519 | 15 | 253 | 4.8 | 14.5 | 0.10 | 0.15 | 0.15 | 80 | 1011.5 |
| 20260509180521 | 16 | 233 | 3.2 | 6.4 | 0.05 | 0.10 | 0.10 | 75 | 1011.1 |